Voltar ao catálogo

STARLINK-34508

AtivoComunicaçõesVLEO
NORAD 64601·PAYLOAD·🇺🇸 United States

Lançado Jun 25, 2025 de Cape Canaveral Space Force Station

Loading…

Próximas Passagens (próximas 24 horas)

TLE

AtualizadoSource: CelesTrak SupGP

Época: Sep 14, 2026, 20:47 UTC

1 64601C 25137H   26257.86645833 -.00004007  00000+0 -11832-3 0  2577
2 64601  53.1597 175.7844 0001339  92.6206 109.6378 15.34409765    15

Acompanhe STARLINK-34508 em tempo real com AllMySat

Download on the App Store